Location: Brienzwiler
(46.7508°N, 8.1014°E)
Time: 08:15:09
(UTC+00:00)

SL-16 R/B - Pass Details

Date: 05 July 2020
Orbit: 842 x 846 km, 71.0° (Epoch: 05 August)

Event Time Altitude Azimuth Distance (km) Brightness Sun altitude
Rises 20:50:35 0° 238° (WSW) 3,394 5.4 -11.6°
Reaches altitude 10° 20:53:18 10° 249° (WSW) 2,464 4.8 -11.8°
Maximum altitude 20:58:15 30° 310° (NW) 1,465 4.3 -12.3°
Drops below altitude 10° 21:03:14 10° 11° (NNE) 2,478 5.3 -12.8°
Sets 21:06:00 0° 22° (NNE) 3,417 5.9 -13.1°
